www.pogodaiklimat.ru

Погода и климат >> Архив погоды >> Мексика >> Puerto Angel


ПОГОДА в Puerto Angel

  • Прогноз погоды в Puerto Angel
  • Монитор погоды в Puerto Angel
  • Климат города

АРХИВ ПОГОДЫ в Puerto Angel

Время (UTC), дата Ветер
(напр.,м/с)
 
Видим.   Явления Облачность Т
(С)
Тd
(С)
f
(%)
Тe
(С)
Тes
(С)
Комфортность P
(гПа)
Po
(гПа)
Тmin
(С)
Tmax
(С)
R
(мм)
S
(см)
03 21.03 СЗ 2 30 км ясно +27.4 +21.2 69 +35 +35 очень
душно
1012.9 1008.1
06 21.03 С 2 30 км ясно +26.2 +20.2 70 +32 +32 очень
душно
1014.0 1009.1 +24.4 +33.6
09 21.03 С 2 30 км ясно +25.6 +19.8 70 +31 +31 очень
душно
1013.4 1008.5
12 21.03 СВ 2 30 км ясно +23.0 +18.6 76 +29 +29 очень
душно
1013.0 1008.0 +22.0 +33.6
15 21.03 Ю 3 30 км 3/0
[Cs]
+28.4 +22.3 70 +37 +44 очень
душно
1014.2 1009.3
18 21.03 СЗ 1 30 км 3/1 600 м
[Cu med, cong Cs]
+30.8 +22.5 61 +40 +61 опасность
солнечного
удара
1013.7 1008.8 +22.0 +31.2
21 21.03 ЮЗ 3 30 км 8/1 600 м
[Cu med, cong Ac As Cs]
+30.4 +23.9 68 +42 +48 опасность
перегрева
1011.8 1006.8
00 22.03 З 2 30 км 4/1 600 м
[Cu med, cong Ac As Cs]
+29.0 +23.2 71 +39 +39 очень
душно
1012.1 1007.2 +22.0 +32.8
03 22.03 СВ 1 30 км 3/0
[Cs]
+27.0 +23.1 79 +36 +36 очень
душно
1013.2 1008.4
06 22.03 СВ 2 30 км ясно +25.6 +23.1 86 +34 +34 очень
душно
1013.9 1009.0 +22.0 +32.8
09 22.03 С 3 30 км ясно +24.0 +21.7 87 +31 +31 очень
душно
1011.6 1006.7
12 22.03 СВ 2 30 км 5/0
[Cs]
+24.6 +21.2 81 +31 +31 очень
душно
1011.5 1006.6 +23.6 +32.8
15 22.03 СВ 2 30 км 5/0
[Cs]
+24.6 +21.2 81 +31 +38 очень
душно
1011.5 1006.6 +23.6 +32.8
18 22.03 ЮЗ 3 30 км 6/1 600 м
[Cu med, cong Cs]
+30.8 +22.8 62 +40 +54 опасность
солнечного
удара
1013.1 1008.1 +23.6 +31.2
21 22.03 ЮЗ 4 30 км 5/1 600 м
[Cu med, cong Ac As Cs]
+30.6 +22.9 64 +41 +47 опасность
перегрева
1011.6 1006.7
00 23.03 З 3 30 км 10/1 600 м
[Cu med, cong Ac As Cs]
+28.6 +23.7 75 +39 +39 очень
душно
1011.4 1006.5 +23.6 +33.0
03 23.03 С 2 30 км ясно +26.8 +22.9 79 +36 +36 очень
душно
1012.2 1007.3
06 23.03 С 2 30 км ясно +24.4 +21.0 81 +31 +31 очень
душно
1013.1 1008.2 +23.6 +33.0
09 23.03 С 3 30 км ясно +23.0 +19.5 81 +30 +30 очень
душно
1012.4 1007.5
12 23.03 С 3 30 км ясно +22.2 +21.1 93 +29 +29 очень
душно
1012.3 1007.3 +21.6 +33.0
15 23.03 ЮВ 1 30 км ясно +27.6 +21.1 68 +35 +45 очень
душно
1013.1 1008.1
18 23.03 Ю 1 30 км 5/1 600 м
[Cu med, cong Cs]
+31.6 +21.9 56 +40 +60 опасность
солнечного
удара
1012.9 1008.0 +21.6 +33.0
21 23.03 ЮЗ 1 30 км 6/1 600 м
[Cu med, cong Ci ing]
+31.0 +22.1 59 +40 +52 опасность
солнечного
удара
1011.3 1006.4
00 24.03 ЮЗ 1 30 км 5/1 600 м
[Cu med, cong Cs]
+30.0 +21.0 59 +38 +38 очень
душно
1010.9 1006.0 +21.6 +33.0
03 24.03 СЗ 1 30 км ясно +27.0 +19.8 65 +33 +33 очень
душно
1012.1 1007.3
06 24.03 С 1 30 км ясно +25.0 +18.2 66 +29 +29 душно 1013.3 1008.4 +21.6 +33.0
09 24.03 СЗ 1 30 км ясно +23.6 +17.6 69 +28 +28 душно 1012.3 1007.3
12 24.03 С 1 30 км ясно +22.6 +17.1 71 +27 +27 душно 1012.0 1007.1 +20.4 +33.0
15 24.03 ЮЗ 2 30 км ясно +30.0 +17.6 47 +34 +42 очень
душно
1013.8 1008.8
18 24.03 ЮЗ 4 30 км ясно +32.4 +21.8 54 +41 +55 опасность
перегрева
1014.0 1009.1 +20.4 +33.2
21 24.03 З 4 30 км 1/0
[Ac cuf]
+33.4 +22.7 54 +43 +51 опасность
перегрева
1011.5 1006.6
00 25.03 З 5 30 км 5/0
[Ac trans]
+30.4 +21.7 60 +39 +39 очень
душно
1010.6 1005.8 +20.4 +34.0
03 25.03 СЗ 3 20 км ясно +27.6 +22.0 72 +36 +36 очень
душно
1012.3 1007.4
06 25.03 СЗ 3 20 км ясно +27.0 +22.3 75 +35 +35 очень
душно
1013.6 1008.8 +20.4 +34.0
09 25.03 СЗ 5 20 км ясно +26.4 +21.6 75 +34 +34 очень
душно
1011.3 1006.4
12 25.03 СЗ 5 20 км ясно +26.2 +21.1 74 +33 +33 очень
душно
1011.4 1006.4 +24.6 +34.0
15 25.03 СЗ 2 30 км ясно +28.0 +22.4 72 +37 +45 очень
душно
1013.4 1008.5
18 25.03 З 2 30 км ясно +31.4 +23.5 63 +42 +63 опасность
перегрева
1013.7 1008.8 +24.6 +34.0
21 25.03 З 2 30 км 3/3 600 м
[Cu med, cong]
+32.6 +23.6 59 +44 +53 опасность
перегрева
1011.3 1006.4
00 26.03 З 3 30 км 6/1 600 м
[Cu med, cong Ac As Cs]
+29.6 +23.3 69 +40 +40 очень
душно
1010.6 1005.8 +24.6 +34.2
03 26.03 СЗ 2 30 км ясно +27.6 +23.5 78 +37 +37 очень
душно
1011.8 1006.9
06 26.03 СЗ 2 30 км ясно +26.6 +22.3 77 +35 +35 очень
душно
1012.7 1007.9 +24.6 +34.2
09 26.03 СЗ 2 30 км ясно +26.0 +22.4 81 +34 +34 очень
душно
1011.9 1007.0
12 26.03 С 2 30 км ясно +24.0 +22.0 89 +31 +31 очень
душно
1010.8 1005.9 +22.4 +34.2
15 26.03 З 3 30 км ясно +29.0 +22.9 70 +39 +46 очень
душно
1012.3 1007.4
18 26.03 З 5 30 км 1/1 600 м
[Cu hum]
+32.0 +23.3 60 +43 +52 опасность
перегрева
1012.3 1007.4 +22.4 +32.6
21 26.03 З 6 30 км 5/1 600 м
[Cu med, cong Ac und]
+31.4 +23.8 64 +43 +46 опасность
перегрева
1010.2 1005.4
00 27.03 З 5 30 км 3/0
[Ac cuf]
+29.8 +23.5 69 +40 +41 очень
душно
1009.6 1004.7 +22.4 +33.2
03 27.03 СЗ 4 20 км 1/0
[Ac trans]
+27.8 +23.4 77 +38 +38 очень
душно
1010.5 1005.7
06 27.03 СЗ 4 20 км ясно +27.4 +23.0 77 +37 +37 очень
душно
1011.4 1006.5 +22.4 +33.2
09 27.03 СЗ 3 20 км 4/0
[Cs]
+26.6 +23.3 82 +36 +36 очень
душно
1010.4 1005.5
12 27.03 СЗ 2 20 км 1/0
[Cs]
+25.0 +22.5 86 +33 +33 очень
душно
1010.3 1005.4 +23.8 +33.2
15 27.03 ЮЗ 1 30 км 5/1 600 м
[Cu med, cong Cs]
+28.4 +22.9 72 +38 +46 очень
душно
1010.9 1006.0
18 27.03 З 2 30 км 6/1 600 м
[Cu med, cong Cs]
+31.0 +23.3 64 +42 +59 опасность
перегрева
1012.4 1007.5 +23.8 +32.0
21 27.03 З 2 30 км 5/1 600 м
[Cu med, cong Ci ing]
+32.0 +23.3 60 +43 +53 опасность
перегрева
1010.7 1005.8
00 28.03 З 1 30 км 6/1 600 м
[Cu med, cong Ci ing]
+29.6 +23.3 69 +40 +40 очень
душно
1008.8 1003.9 +23.8 +33.0

 

Местоположение метеостанции Puerto Angel (Мексика): широта 15.68 долгота -96.48 высота над уровнем моря 46 м.

В архиве по умолчанию представлена погода в Puerto Angel за последнюю неделю. Архивные данные за месяц целиком и за предыдущие месяцы, начиная с января 2011 года, Вы можете получить, выбрав интересующий диапазон дат из раскрывающегося списка и нажав кнопку "Ввод!".

Внимание! Время в таблицах - всемирное. Для получения местного времени необходимо прибавить поправку, которая в Puerto Angel равна -6 ч.

Смотрите также архив погоды в соседних городах и на ближайших метеорологических станциях:

Погода в Salina Cruz (Мексика) (149 км)
Погода в Oaxaca (Мексика) (154 км)
Погода в Huajuapan De Leon (Мексика) (273 км)
Погода в Arriaga (Мексика) (283 км)
Погода в Coatzacoalcos (Мексика) (350 км)
Погода в Orizaba Ver. (Мексика) (359 км)
Погода в Cordoba-In-Veracruz (Мексика) (361 км)
Погода в Tuxtla Gutierrez (Мексика) (377 км)
Погода в Chilpancingo (Мексика) (383 км)
Погода в Hacienda Ylang (Мексика) (388 км)

Пояснения к столбцам:

Ветер - указаны скорость ветра в м/с - средняя за 10 мин, порывы в срок и между сроками (в фигурных скобках) и направление, откуда дует ветер: С - северный, СВ - северо-восточный, В - восточный, ЮВ - юго-восточный, Ю - южный, ЮЗ - юго-западный, З - западный, СЗ - северо-западный.
Видимость - горизонтальная дальность видимости в метрах или километрах. При видимости от 1 до 10 км при отсутствии осадков обычно наблюдается дымка, при ухудшении видимости до 1 км и менее - туман. В сухую погоду видимость может ухудшаться дымом, пылью или мглою.
Явления - указаны атмосферные явления, наблюдавшиеся в срок или в последний час перед сроком; фигурными скобками обозначены явления, наблюдавшиеся между сроками (за 1-3 часа до срока); квадратными скобками обозначены град или гололедные отложения с указанием их диаметра в мм.
Облачность - указаны через наклонную черту общая и нижняя облачность в баллах и высота нижней границы облаков в метрах; квадратными скобками обозначены формы облаков: Ci - перистые, Cs - перисто-слоистые, Cc - перисто-кучевые, Ac - высококучевые, As - высокослоистые, Sc - слоисто-кучевые, Ns - слоисто-дождевые, Cu - кучевые, Cb - кучево-дождевые. Подробнее классификацию облаков см. в Атласе облаков (PDF).
T - Температура воздуха - температура, измеренная на высоте 2 м над землей.
Td - Температура точки росы - температура, при понижении до которой содержащийся в воздухе водяной пар достигнет насыщения.
f - Относительная влажность воздуха - влажноcть воздуха, измеренная на высоте 2 м над землей.
Te - Эффективная температура - температура, которую ощущает одетый по сезону человек в тени. Характеристика душности погоды. При расчете учитывается влияние влажности воздуха и скорости ветра на теплоощущения человека.
Tes - Эффективная температура на солнце - температура, которую ощущает человек, с поправкой на солнечный нагрев. Характеристика знойности погоды. Зависит от высоты солнца над горизонтом, облачности и скорости ветра. Ночью, в пасмурную погоду, а также при ветре 12 м/с и более поправка равна нулю.
P - Атмосферное давление - приведенное к уровню моря атмосферное давление.
Po - Атмосферное давление - измеренное на уровне метеостанции атмосферное давление.
Tmin - Минимальная температура - минимум температуры воздуха на высоте 2 м над землей.
Tmax - Максимальная температура - максимум температуры воздуха на высоте 2 м над землей.
R - Количество осадков - Количество выпавших осадков, мм. При наведении курсора мыши на число - период времени, за который выпало указанное количество осадков.
S - Снежный покров - Высота снежного покрова, см. При наведении курсора мыши на число - состояние снежного покрова и степень покрытия местности в баллах.